Location: ???? ???? ?????
(31.2680°N, 31.7283°E)
Time: 09:45:25
(UTC+00:00)

BREEZE-M (TANK) - Pass Details

Date: 13 July 2020
Orbit: 315 x 17583 km, 49.5° (Epoch: 07 August)

Event Time Altitude Azimuth Distance (km) Brightness Sun altitude
Rises 17:27:43 0° 187° (S) 2,058 5.2 -6.2°
Reaches altitude 10° 17:29:30 10° 163° (SSE) 1,404 4.2 -6.5°
Maximum altitude 17:31:33 19° 113° (ESE) 1,304 3.8 -6.9°
Drops below altitude 10° 17:35:05 10° 68° (ENE) 2,598 5.6 -7.6°
Sets 17:40:23 0° 53° (NE) 5,055 7.2 -8.5°
